Regional Weather Roundup
Issued by NWS Wakefield, VA

Home | Current Version | Previous Version | Graphics & Text | Print | Product List | Glossary On
Versions: 1 2 3 4 5 6 7 8 9 10 11 12 13 14 15 16 17 18 19 20 21 22 23 24 25 26 27 28
000
ASUS41 KAKQ 300410
RWRAKQ

REGIONAL WEATHER ROUNDUP
NATIONAL WEATHER SERVICE WAKEFIELD VA
1200 AM EDT THU OCT 30 2014

Note: "fair" indicates few or no clouds below 12,000 feet with no
significant weather and/or obstructions to visibility. * = Denotes
station may not report precipitation (e.g., rain,snow,etc.),
thunder or fog.

VAZ042-051-052>054-056-300500-
NORTHERN VIRGINIA

CITY           SKY/WX    TMP DP  RH WIND       PRES   REMARKS
WASH NATIONAL  CLEAR     55  50  83 CALM      30.00S
DULLES         CLEAR     46  45  96 CALM      30.00S
FORT BELVOIR   CLEAR     46  45  93 CALM      30.00S
QUANTICO       CLEAR     50  46  86 NW5       30.01S
FREDERICKSBRG* PTCLDY    49  49 100 CALM      30.00S
STAFFORD*      CLEAR    N/A N/A N/A CALM      30.04S FOG
WARRENTON      FOG       44  44 100 CALM      30.00S VSB<1/4
CULPEPER*      FOG       43  43 100 CALM      30.01S VSB 1/4
MANASSAS*      CLOUDY    45  45 100 CALM      30.00S VSB<1/4
LEESBURG*      CLEAR     46  46 100 CALM      30.00S
WINCHESTER     CLEAR     45  36  70 CALM      29.99S
FRONT ROYAL*   CLEAR     43  41  93 SW3       29.99S
LURAY*         CLEAR     43  43 100 CALM      30.00F
$$

VAZ048-049-060>072-079>083-300500-
CENTRAL AND SOUTH CENTRAL VIRGINIA...AND NORTH CENTRAL NORTH CAROLINA

CITY           SKY/WX    TMP DP  RH WIND       PRES   REMARKS
RICHMOND       MOCLDY    54  51  90 CALM      29.99F
CHESTERFIELD*  MOCLDY    54  45  71 CALM      30.01S
PETERSBURG*    CLOUDY    55  50  83 NE5       29.99F
HANOVER        MOCLDY    51  50  96 CALM      30.02S
TAPPAHANNOCK*  MOCLDY    53  49  87 CALM      30.01S
CHARLOTTSVILLE FOG       49  48  97 CALM      30.00F VSB 1/4
ORANGE*        FOG       45  43  93 CALM      30.02S VSB 1/4
LOUISA*        MOCLDY    48  46  93 CALM      29.99F FOG
FARMVILLE*     MOCLDY    55  55 100 N3        29.99F
CREWE*         CLOUDY    56  53  89 NW5       30.00S
FORT PICKETT*  CLOUDY    55  53  94 NE3       29.99S
LUNENBURG*     CLOUDY    56  52  88 CALM      29.99R
SOUTH HILL*    CLOUDY    59  57  94 CALM      30.04R
LAWRENCEVILLE* CLOUDY    55  53  95 CALM      29.98S
ROANOKE RAPIDS CLOUDY    55  54  94 NE6       29.97S
RALEIGH        CLOUDY    57  50  77 VRB3      30.02F
$$

VAZ088>098-300500-
SOUTHEAST VIRGINIA

CITY           SKY/WX    TMP DP  RH WIND       PRES   REMARKS
NORFOLK        LGT RAIN  57  51  80 N16G25    29.98F
VIRGINIA BEACH LGT RAIN  57  50  77 N14       29.97F
NORFOLK NAVAL  LGT RAIN  58  53  84 N17       30.01S
WEST POINT*    CLOUDY    56  54  91 CALM      30.00F
NEWPORT NEWS   LGT RAIN  57  52  83 NE3       30.00F
LANGLEY AFB    LGT RAIN  55  55 100 NE8       30.00S FOG
FORT EUSTIS    DRIZZLE   55  55 100 NE6       29.98F
WILLIAMSBURG*  CLOUDY    55  54  94 CALM      29.99F
HR EXEC AP*    CLOUDY    55  52  88 NE6       30.01S
FRANKLIN*      CLOUDY    54 N/A N/A NE9       29.98F
WAKEFIELD      CLOUDY    54  51  90 NE5       29.99F
$$

VAZ020-022-025-037-045-300500-
WEST CENTRAL AND SOUTHWEST VIRGINIA

CITY           SKY/WX    TMP DP  RH WIND       PRES   REMARKS
STAUNTON*      CLEAR     40  36  84 CALM      30.03S
HOT SPRINGS VA CLEAR     43  33  67 W9G21     29.99F
LYNCHBURG      CLEAR     47  38  71 CALM      30.02F
DANVILLE       CLOUDY    56  48  74 SW3       30.03R
SOUTH BOSTON*  NOT AVBL
MARTINSVILLE   PTCLDY    48  42  79 CALM      30.05S
ROANOKE        CLEAR     49  37  63 NW5       30.04S
BLACKSBURG     CLEAR     39  39 100 CALM      30.06S
DUBLIN*        CLEAR     46  38  75 SW5       30.06F
MARION*        CLEAR     43  41  92 W7        30.09F
HILLSVILLE*    CLEAR     45  41  85 W10       30.05S
RICHLANDS*     CLEAR     48  43  81 W7        30.08S
WISE*          CLEAR     45  32  61 W3        30.10S
ABINGDON*      CLEAR     44  43  97 CALM      30.10S
$$

MDZ021>025-VAZ099-100-300500-
SOUTHERN MARYLAND AND THE DELMARVA PENINSULA

CITY           SKY/WX    TMP DP  RH WIND       PRES   REMARKS
PATUXENT RIVER CLOUDY    53  50  89 CALM      29.99S
BAY BRIDGE APT   N/A     50  48  93 CALM      29.99S
LEONARDTOWN    MOCLDY    52  50  93 CALM      30.01S
DOVER          PTCLDY    51  49  92 SW2       29.96F
GEORGETOWN     MOCLDY    55  47  74 CALM      29.99S
EASTON         CLEAR     50  50 100 CALM      30.03R
CAMBRIDGE      MOCLDY    54  50  87 CALM      29.99R
SALISBURY      CLOUDY    57  48  72 CALM      29.99R
OCEAN CITY     LGT RAIN  53  50  89 NW3       29.98S
WALLOPS ISLAND LGT RAIN  53  50  89 N3        30.00R
ACCOMACK*      RAIN      54  50  87 CALM      30.00R
$$

NCZ012>017-030>032-300500-
EASTERN NORTH CAROLINA

CITY           SKY/WX    TMP DP  RH WIND       PRES   REMARKS
ELIZABETH CITY HVY RAIN  60  55  83 N12       29.99R
AHOSKIE*       NOT AVBL
EDENTON*       CLOUDY    58  57  95 NE9G16    29.95F
CURRITUCK*     LGT RAIN  59  52  78 N8        30.00R
KILL DEVIL HLS CLOUDY    65  60  83 N7G16     29.94R
MANTEO         CLOUDY    64  59  85 N10       29.95R
CAPE HATTERAS  PTCLDY    71  66  84 SW13      29.93F
TARBORO*       CLOUDY    59  57  94 CALM      29.97F
GOLDSBORO      LGT RAIN  63  61  94 CALM      29.96R
WASHINGTON     CLOUDY    60  57  89 CALM      29.97R
GREENVILLE     DRIZZLE   61  59  94 CALM      29.98F
NEW BERN       CLOUDY    70  63  78 W5        29.95R
WILMINGTON     CLOUDY    69  65  86 W3        29.94F
$$

VAZ048-300500-
ELSEWHERE

CITY           SKY/WX    TMP DP  RH WIND       PRES   REMARKS
HARRISBURG PA  PTCLDY    47  46  97 CALM      29.97F FOG
BALTIMORE      PTCLDY    46  46 100 CALM      29.98F
ANNAPOLIS      CLEAR     50  48  93 CALM      29.99S
ANDREWS AFB    CLEAR     46  46 100 CALM      29.99S FOG
WILMINGTON DE  CLEAR     47  47 100 W6        29.99S FOG
PHILADELPHIA   MOCLDY    52  48  86 NW7       29.98S
WILDWOOD NJ*   CLOUDY    55  46  71 NW6       29.99R
ATLANTIC CITY  CLOUDY    51  46  83 NW5       29.97F
HENDERSON NC   CLOUDY    56  47  70 NW5       30.02R
GREENSBORO     MOCLDY    54  51  90 CALM      30.02S
ROCKY MOUNT    LGT RAIN  59  57  93 NW7       30.00R
FAYETTEVILLE   CLOUDY    63  54  72 N13G20    29.98R
CHARLOTTE      CLOUDY    60  44  55 N7        30.02S
$$

VAZ100-300500-
MARINE

STATION/POSITION TIME  TEMP    WIND        PRES    WAVE   SWELL
                       AIR SEA DIR/SP/G            HT/PER HT/PER
                 (UTC) (F)     (DEG/KT/KT) (MB)    (FT/S) (FT/S)
44066 TX TWR #4  0400   58 65  320/ 17/ 21 1012.6F   5/ 5
CAPE MAY NJ      0400   57 65  330/  4/  8 1014.5F
LEWES DE         0400   57 61  320/  8/ 10 1014.9R
15NM E FENWICK I 0400   59 64              1014.5R   3/ 4
OCEAN-CITY-INLET 0400   56 63  330/  5/  6 1014.9S
WACHAPREAGUE VA  0400   54 65   CALM  /  2 1015.8S
THOMAS POINT MD  0400   56 62  330/  3/  4 1016.6R
GOOSES REEF MD   0400   58        CALM     1016.0S
COVE POINT MD    0400   56     100/  3/  4 1015.5R
SOLOMONS ISLAND  0400      63                N/A
BISHOPS HEAD MD  0400   56 62   60/  3/  4 1015.2R
PINEY POINT MD   0400          160/  2/  2   N/A
POTOMAC MD       0400   59      70/  4/  6 1015.1R
CAMBRIDGE MD     0400   56 61   80/  2/  3 1015.3R
LEWISETTA VA     0400   59 62   80/  2/  4 1015.2S
RAPPAHANNOCK LGT 0400           30/ 11/ 12 1016.0S
STINGRAY PT      0400   59      50/  8/ 10 1016.2F
YORK RVR RNG VA  0400   57      40/ 11/ 15 1015.1F
YORKTOWN VA      0400   55 64   40/  5/  6 1015.5S
JAMESTOWN VA     0400   54     110/  4/  8   N/A
DOMINION TERM VA 0400   56      10/ 10/ 15 1015.8R
KIPTOPEKE VA     0400      67   20/  4/  7   N/A
CHES BAY BRIDGE  0400   57 64   10/ 16/ 19 1015.0R
CHESAPEAKE LGHT  0300   61      10/ 19/ 21 1015.4R
WILLOUBY STN VA  0400   56      10/ 14/ 16 1014.3R
S CRANEY ISL VA  0400          330/ 17/ 19 1015.2F
CAPE HENRY BUOY  0400      65                N/A     4/ 4
1ST LANDING BUOY 0400   58      10/ 17/ 21 1015.2F
CAPE CHARLES BUO 0400      66                N/A     4/ 4   2/ 7
64NM E OF VA BCH 0400   64 67   10/ 19/ 23 1012.6R   3/ 6   2/ 6
DUCK PIER NC     0400   64 68  350/ 23/ 25 1012.9S
44100 DUCK FRF   0400      67                N/A     4/ 7
OREGON INLET NC  0400   67 68  320/  4/ 13 1013.3F
HATTERAS NC      0400   72 72  230/  9/ 12 1013.9F
DIAMOND SHLS NC  0400   75     230/ 17/ 21 1013.4F   4/ 5
CAPE LOOKOUT NC  0300   72     230/  7/ 10 1013.9F
$$



USA.gov is the U.S. government's official web portal to all federal, state and local government web resources and services.